FLOCK 3P-28 (41960 NORAD) Tracking and Keplerian Element Data

This shows tracking and keplerian element data for the satellite.

Feedback or suggestion? Click here.




ElementValue
Catalog41960
NameFLOCK 3P-28
Epoch Orbit5532
Epoch Day45.38996247
Epoch Year2018
RAAN110.8579
Inclination97.4655
Eccentricity0.0010034
Argument of Perigee68.0527
Mean Anonmoly292.1776
Mean Motion15.23908162
Decay Rate2.612E-05
L11 41960U 17008N 18045.38996247 .00002612 00000-0 11102-3 0 9991
L22 41960 97.4655 110.8579 0010034 68.0527 292.1776 15.23908162 55321

Live tracking and technical data element details for FLOCK 3P-28 (NORAD 41960). FLOCK 3P-28 can be tracked NOW for your location showing map with azimuth and elevation plus other details from your city location.

Track the satellite on the map from your city or location and see movement details for azimuth, elevation, latitude, longitude, range, height, and movement on the map or in text.







IsCatalogInMostPopularTable: catalog: 41960, numindb: 113
Update: records affected: 1



GetName: 41960 FLOCK 3P-28

Hit Count: updated at: Fri, 16 Nov 2018 11:19:28 GMT